Regional Weather Roundup
Issued by NWS

Home | Current Version | Previous Version | Graphics & Text | Print | Product List | Glossary On
Versions: 1 2 3 4 5 6 7 8 9 10 11 12 13 14 15 16 17 18 19 20 21 22 23 24 25 26 27 28 29 30 31 32 33 34 35 36 37 38 39 40 41 42 43 44 45 46 47 48 49 50
000
ASUS45 KBOI 010710
RWRID
WEATHER ROUNDUP FOR IDAHO
NATIONAL WEATHER SERVICE BOISE ID
100 AM MDT MON SEP 01 2014

NOTE: "FAIR" INDICATES FEW OR NO CLOUDS BELOW 12000 FEET
WITH NO SIGNIFICANT WEATHER AND/OR OBSTRUCTIONS TO VISIBILITY

IDZ012-014-010800-
SOUTHWEST IDAHO


CITY           SKY/WX    TMP DP  RH WIND       PRES   REMARKS
BOISE          PTCLDY    60  41  49 CALM      29.99R
CALDWELL       PTCLDY    55  39  54 W5        30.00S
MOUNTAIN HOME  CLEAR     55  42  60 W5        29.99R
$$

IDZ016-017-010800-
SOUTHCENTRAL IDAHO


CITY           SKY/WX    TMP DP  RH WIND       PRES   REMARKS
BURLEY         CLEAR     53  42  66 SW10      30.00S
JEROME         CLEAR     55  40  56 S5        30.02R
TWIN FALLS     CLEAR     54  41  61 S10       30.02S
$$

IDZ019>023-010800-
SOUTHEAST IDAHO


CITY           SKY/WX    TMP DP  RH WIND       PRES   REMARKS
IDAHO FALLS    MOCLDY    59  36  42 S12       29.99F
POCATELLO      CLEAR     59  37  44 S15       30.00F
REXBURG        CLOUDY    55  37  50 S6        30.00R
$$

IDZ006-010-011-018-031-032-010800-
CENTRAL IDAHO MOUNTAINS


CITY           SKY/WX    TMP DP  RH WIND       PRES   REMARKS
MCCALL         CLEAR     44  36  73 CALM      30.05S
HAILEY         PTCLDY    50  36  57 NW10      30.04S
STANLEY          N/A     39  33  79 S3        30.12R
SALMON         MOCLDY    57  39  51 N14       29.99R
CHALLIS        PTCLDY    57  35  43 W9        30.02R
$$

IDZ002-004-006-007-026-010800-
NORTHERN IDAHO


CITY           SKY/WX    TMP DP  RH WIND       PRES   REMARKS
LEWISTON       PTCLDY    63  41  44 CALM      29.98R
LOWELL           N/A     54  49  83 NW3       30.03R
COEUR D`ALENE  PTCLDY    52  39  62 S5        29.97S
MULLAN PASS    CLEAR     41  35  79 W6        30.06R
$$


USA.gov is the U.S. government's official web portal to all federal, state and local government web resources and services.